Location: Schommer Observatory
(40.5200°N, 74.4500°W)
Time: 13:41:47
(UTC-04:00)

ISS - Pass Details

Date: 25 May 2018
Orbit: 402 x 407 km, 51.6° (Epoch: 27 May)

Event Time Altitude Azimuth Distance (km) Brightness Sun altitude
Rises 00:40:45 0° 311° (NW) 2,320 0.6 -28.5°
Reaches altitude 10° 00:43:30 10° 337° (NNW) 1,459 -0.2 -28.5°
Maximum altitude 00:45:28 15° 14° (NNE) 1,202 -0.7 -28.5°
Enters shadow 00:46:01 14° 25° (NNE) 1,224 -0.7 -28.5°
